Data for 09/12/2016

Time Sea-Level Adjusted Pressure Absolute Pressure Temperature Relative Humidity Dew Point   
(mb) (inHg) (mb) (inHg) (C) (F) (%) (C) (F)
00:05 1021 30.15 850 25.1 5.5 41.8 86 3.3 37.9
00:10 1021 30.15 850 25.1 5.4 41.7 87 3.3 38
00:15 1021 30.15 850 25.1 5.3 41.5 88 3.4 38.1
00:20 1021 30.15 850 25.1 5.1 41.2 88 3.3 38
00:25 1021 30.15 850 25.1 5.1 41.1 88 3.3 37.9
00:30 1021 30.15 850 25.1 4.9 40.8 89 3.2 37.8
00:35 1021 30.15 851 25.13 4.9 40.8 89 3.2 37.7
00:40 1021 30.15 851 25.13 4.7 40.5 88 2.9 37.3
00:45 1021 30.15 851 25.13 4.8 40.7 87 2.8 37
00:50 1022 30.18 851 25.13 4.7 40.4 89 3 37.4
00:55 1022 30.18 851 25.13 4.6 40.3 89 2.9 37.3
01:00 1022 30.18 851 25.13 4.6 40.4 89 3 37.4
01:05 1022 30.18 851 25.13 4.5 40.2 89 2.8 37.1
01:10 1022 30.18 851 25.13 4.4 39.8 88 2.6 36.7
01:15 1022 30.18 851 25.13 4.2 39.5 88 2.4 36.4
01:20 1022 30.18 851 25.13 4.1 39.3 89 2.4 36.3
01:25 1022 30.18 851 25.13 4 39.2 89 2.3 36.2
01:30 1022 30.18 851 25.13 3.9 39.1 89 2.2 36
01:35 1022 30.18 851 25.13 3.9 39 88 2.2 35.9
01:40 1022 30.18 851 25.13 3.9 38.9 88 2 35.6
01:45 1022 30.18 851 25.13 3.8 38.9 89 2.1 35.9
01:50 1022 30.18 851 25.13 3.8 38.8 88 2 35.6
01:55 1022 30.18 851 25.13 3.8 38.8 88 2 35.6
02:00 1022 30.18 851 25.13 3.7 38.7 88 1.9 35.4
02:05 1022 30.18 851 25.13 3.7 38.7 89 2 35.7
02:10 1022 30.18 851 25.13 3.8 38.8 87 1.9 35.3
02:15 1022 30.18 851 25.13 3.7 38.7 87 1.8 35.2
02:20 1022 30.18 851 25.13 3.7 38.7 88 1.9 35.4
02:25 1022 30.18 851 25.13 3.7 38.7 87 1.8 35.2
02:30 1022 30.18 851 25.13 3.7 38.7 87 1.8 35.3
02:35 1022 30.18 851 25.13 3.8 38.8 88 1.9 35.5
02:40 1022 30.18 851 25.13 3.8 38.8 87 1.8 35.2
02:45 1022 30.18 851 25.13 3.8 38.8 87 1.8 35.2
02:50 1022 30.18 851 25.13 3.7 38.7 87 1.8 35.2
02:55 1022 30.18 851 25.13 3.7 38.7 87 1.7 35
03:00 1022 30.18 851 25.13 3.7 38.6 86 1.6 34.8
03:05 1022 30.18 851 25.13 3.6 38.5 86 1.5 34.7
03:10 1022 30.18 851 25.13 3.6 38.5 86 1.6 34.8
03:15 1022 30.18 851 25.13 3.7 38.6 86 1.6 34.8
03:20 1022 30.18 851 25.13 3.7 38.6 86 1.5 34.7
03:25 1022 30.18 851 25.13 3.7 38.7 86 1.5 34.8
03:30 1022 30.18 851 25.13 3.7 38.6 85 1.4 34.4
03:35 1022 30.18 851 25.13 3.7 38.6 86 1.5 34.7
03:40 1022 30.18 851 25.13 3.6 38.5 86 1.5 34.7
03:45 1022 30.18 851 25.13 3.7 38.6 85 1.3 34.3
03:50 1022 30.18 851 25.13 3.7 38.7 85 1.4 34.5
03:55 1022 30.18 851 25.13 3.7 38.7 85 1.4 34.5
04:00 1022 30.18 851 25.13 3.7 38.7 85 1.4 34.5
04:05 1022 30.18 851 25.13 3.7 38.7 86 1.5 34.7
04:10 1022 30.18 851 25.13 3.7 38.6 86 1.5 34.7
04:15 1022 30.18 851 25.13 3.7 38.6 86 1.6 34.8
04:20 1022 30.18 851 25.13 3.6 38.5 86 1.4 34.5
04:25 1022 30.18 852 25.16 3.5 38.3 85 1.2 34.2
04:30 1022 30.18 852 25.16 3.5 38.2 86 1.3 34.3
04:35 1022 30.18 852 25.16 3.5 38.3 86 1.4 34.6
04:40 1023 30.21 852 25.16 3.5 38.2 86 1.3 34.3
04:45 1023 30.21 852 25.16 3.5 38.2 86 1.3 34.3
04:50 1023 30.21 852 25.16 3.4 38.2 86 1.3 34.3
04:55 1023 30.21 852 25.16 3.4 38.1 86 1.3 34.3
05:00 1023 30.21 852 25.16 3.4 38 86 1.2 34.2
05:05 1023 30.21 852 25.16 3.3 38 85 1 33.8
05:10 1023 30.21 852 25.16 3.4 38 85 1.1 33.9
05:15 1023 30.21 852 25.16 3.4 38.1 85 1.1 33.9
05:20 1023 30.21 852 25.16 3.4 38.1 85 1.1 34
05:25 1023 30.21 852 25.16 3.4 38.2 84 1 33.8
05:30 1023 30.21 852 25.16 3.4 38.2 84 0.9 33.7
05:35 1023 30.21 852 25.16 3.3 37.9 84 0.9 33.5
05:40 1023 30.21 852 25.16 3.3 37.9 85 0.9 33.7
05:45 1023 30.21 852 25.16 3.3 37.9 83 0.7 33.2
05:50 1023 30.21 852 25.16 3.3 37.9 83 0.6 33.1
05:55 1023 30.21 852 25.16 3.2 37.8 85 0.9 33.6
06:00 1023 30.21 852 25.16 3.3 37.9 84 0.8 33.5
06:05 1023 30.21 852 25.16 3.2 37.8 84 0.8 33.4
06:10 1023 30.21 852 25.16 3.1 37.6 85 0.8 33.5
06:15 1023 30.21 852 25.16 3.2 37.7 84 0.7 33.2
06:20 1023 30.21 852 25.16 3.4 38.1 81 0.5 32.8
06:25 1023 30.21 852 25.16 3.4 38.2 80 0.3 32.5
06:30 1023 30.21 852 25.16 3.6 38.4 81 0.5 32.9
06:35 1023 30.21 852 25.16 3.5 38.2 82 0.6 33.1
06:40 1023 30.21 852 25.16 3.4 38.2 82 0.7 33.3
06:45 1023 30.21 852 25.16 3.4 38.1 83 0.8 33.4
06:50 1023 30.21 852 25.16 3.4 38.1 83 0.8 33.4
06:55 1023 30.21 852 25.16 3.5 38.3 84 1 33.7
07:00 1023 30.21 853 25.19 3.6 38.4 83 1 33.8
07:05 1023 30.21 853 25.19 3.5 38.2 84 1.1 33.9
07:10 1023 30.21 853 25.19 3.5 38.3 83 0.9 33.6
07:15 1024 30.24 853 25.19 3.5 38.3 84 1 33.8
07:20 1024 30.24 853 25.19 3.6 38.4 82 0.7 33.3
07:25 1024 30.24 853 25.19 3.6 38.5 82 0.9 33.6
07:30 1024 30.24 853 25.19 3.7 38.6 81 0.7 33.2
07:35 1024 30.24 853 25.19 3.7 38.7 81 0.7 33.3
07:40 1024 30.24 853 25.19 3.8 38.9 80 0.7 33.2
07:45 1024 30.24 853 25.19 3.7 38.7 80 0.7 33.2
07:50 1024 30.24 853 25.19 3.8 38.9 80 0.8 33.4
07:55 1024 30.24 853 25.19 3.8 38.9 80 0.7 33.3
08:00 1024 30.24 853 25.19 3.8 38.9 79 0.5 33
08:05 1024 30.24 853 25.19 3.9 39 79 0.6 33.1
08:10 1024 30.24 853 25.19 4 39.2 80 0.8 33.5
08:15 1024 30.24 853 25.19 4.2 39.6 79 0.8 33.5
08:20 1024 30.24 853 25.19 4.3 39.7 80 1.1 34.1
08:25 1024 30.24 853 25.19 4.5 40.1 76 0.6 33.1
08:30 1024 30.24 853 25.19 4.6 40.2 78 1.1 34
08:35 1024 30.24 853 25.19 4.6 40.3 77 0.9 33.7
08:40 1024 30.24 853 25.19 4.7 40.4 76 0.9 33.6
08:45 1024 30.24 853 25.19 4.6 40.2 79 1.2 34.1
08:50 1024 30.24 853 25.19 4.8 40.6 75 0.7 33.3
08:55 1024 30.24 853 25.19 4.7 40.4 78 1.2 34.1
09:00 1024 30.24 853 25.19 4.8 40.7 77 1.2 34.2
09:05 1024 30.24 853 25.19 4.9 40.8 71 0.1 32.2
09:10 1024 30.24 853 25.19 5 41 69 -0.2 31.6
09:15 1024 30.24 853 25.19 5.1 41.1 69 -0.1 31.9
09:20 1024 30.24 853 25.19 5.4 41.7 74 1.2 34.1
09:25 1024 30.24 853 25.19 5.6 42.1 73 1.1 33.9
09:30 1024 30.24 853 25.19 5.4 41.7 71 0.6 33
09:35 1024 30.24 853 25.19 5.2 41.3 74 1 33.8
09:40 1024 30.24 853 25.19 4.8 40.6 75 0.7 33.2
09:45 1024 30.24 853 25.19 4.7 40.4 74 0.4 32.7
09:50 1024 30.24 853 25.19 4.8 40.6 72 0.2 32.4
09:55 1024 30.24 853 25.19 4.6 40.3 74 0.3 32.6
10:00 1024 30.24 853 25.19 4.7 40.4 74 0.5 32.9
10:05 1024 30.24 853 25.19 4.6 40.3 74 0.3 32.6
10:10 1024 30.24 853 25.19 4.6 40.3 73 0.2 32.4
10:15 1024 30.24 853 25.19 4.8 40.6 73 0.3 32.6
10:20 1024 30.24 853 25.19 5 41 71 0.2 32.3
10:25 1024 30.24 853 25.19 5 40.9 72 0.4 32.7
10:30 1024 30.24 853 25.19 4.9 40.9 72 0.3 32.5
10:35 1024 30.24 853 25.19 4.9 40.9 72 0.3 32.5
10:40 1024 30.24 853 25.19 4.9 40.8 72 0.4 32.6
10:45 1024 30.24 853 25.19 4.9 40.8 73 0.4 32.8
10:50 1024 30.24 853 25.19 5 41 73 0.5 32.9
10:55 1024 30.24 853 25.19 5.1 41.1 73 0.5 33
11:00 1024 30.24 854 25.22 5.2 41.3 71 0.4 32.8
11:05 1024 30.24 853 25.19 4.9 40.9 72 0.3 32.5
11:10 1024 30.24 854 25.22 5.1 41.1 72 0.5 32.9
11:15 1024 30.24 853 25.19 5.2 41.3 73 0.6 33.2
11:20 1024 30.24 853 25.19 5 40.9 73 0.5 33
11:25 1024 30.24 853 25.19 5.2 41.4 72 0.5 32.9
11:30 1024 30.24 853 25.19 5 41 73 0.6 33
11:35 1024 30.24 853 25.19 4.9 40.8 71 0 32.1
11:40 1024 30.24 853 25.19 4.6 40.3 73 0.2 32.4
11:45 1024 30.24 853 25.19 5 41 69 -0.3 31.5
11:50 1024 30.24 853 25.19 5.2 41.4 71 0.5 32.9
11:55 1024 30.24 853 25.19 5.3 41.5 72 0.5 33
12:00 1024 30.24 853 25.19 5.3 41.6 72 0.6 33.1
12:05 1024 30.24 853 25.19 4.6 40.2 74 0.4 32.6
12:10 1024 30.24 853 25.19 4.6 40.4 74 0.4 32.8
12:15 1024 30.24 853 25.19 4.6 40.3 74 0.4 32.8
12:20 1024 30.24 853 25.19 4.8 40.6 72 0.1 32.2
12:25 1024 30.24 853 25.19 4.9 40.9 73 0.4 32.8
12:30 1024 30.24 853 25.19 5.2 41.4 73 0.8 33.4
12:35 1024 30.24 853 25.19 4.8 40.7 74 0.7 33.2
12:40 1024 30.24 853 25.19 5 40.9 75 0.9 33.6
12:45 1024 30.24 853 25.19 4.9 40.8 72 0.4 32.6
12:50 1024 30.24 853 25.19 4.8 40.6 74 0.5 32.9
12:55 1024 30.24 853 25.19 4.9 40.8 71 0.1 32.2
13:00 1024 30.24 853 25.19 5.4 41.8 67 -0.1 31.8
13:05 1024 30.24 853 25.19 5.4 41.7 70 0.3 32.6
13:10 1024 30.24 853 25.19 5.4 41.7 70 0.3 32.5
13:15 1024 30.24 853 25.19 5.1 41.1 71 0.2 32.3
13:20 1024 30.24 853 25.19 4.7 40.5 72 0.2 32.3
13:25 1024 30.24 853 25.19 4.7 40.5 71 -0.1 31.9
13:30 1024 30.24 853 25.19 4.8 40.6 71 -0.1 31.8
13:35 1024 30.24 853 25.19 4.8 40.7 70 -0.1 31.8
13:40 1024 30.24 853 25.19 5.1 41.1 70 0.1 32.1
13:45 1024 30.24 853 25.19 5.1 41.2 70 0.1 32.2
13:50 1024 30.24 853 25.19 5 41 69 -0.1 31.8
13:55 1024 30.24 853 25.19 5.2 41.4 69 0 32.1
14:00 1024 30.24 853 25.19 5.3 41.6 69 0.2 32.3
14:05 1024 30.24 853 25.19 5.4 41.8 67 -0.3 31.5
14:10 1024 30.24 853 25.19 5.4 41.7 70 0.4 32.7
14:15 1024 30.24 853 25.19 5.5 41.9 69 0.2 32.3
14:20 1024 30.24 853 25.19 5.4 41.7 68 -0.1 31.8
14:25 1024 30.24 853 25.19 5.4 41.7 68 -0.1 31.9
14:30 1024 30.24 853 25.19 5.7 42.3 65 -0.4 31.3
14:35 1024 30.24 853 25.19 5.8 42.5 65 -0.3 31.5
14:40 1024 30.24 853 25.19 5.5 41.9 67 -0 32
14:45 1024 30.24 853 25.19 5.4 41.8 66 -0.3 31.4
14:50 1024 30.24 853 25.19 5.3 41.6 66 -0.4 31.2
14:55 1024 30.24 853 25.19 5.3 41.5 66 -0.5 31.1
15:00 1024 30.24 853 25.19 5.3 41.6 65 -0.6 30.8
15:05 1024 30.24 853 25.19 5.6 42 63 -0.8 30.5
15:10 1024 30.24 853 25.19 5.5 42 64 -0.8 30.5
15:15 1024 30.24 853 25.19 5.8 42.4 63 -0.7 30.7
15:20 1024 30.24 853 25.19 5.7 42.3 63 -0.7 30.8
15:25 1024 30.24 853 25.19 5.8 42.4 64 -0.5 31.1
15:30 1024 30.24 853 25.19 5.6 42 64 -0.7 30.7
15:35 1024 30.24 853 25.19 5.5 42 64 -0.6 30.8
15:40 1024 30.24 853 25.19 5.6 42 64 -0.8 30.6
15:45 1024 30.24 853 25.19 5.5 41.8 64 -0.8 30.6
15:50 1024 30.24 853 25.19 5.3 41.5 65 -0.8 30.6
15:55 1024 30.24 853 25.19 5.1 41.3 65 -0.8 30.5
16:00 1024 30.24 853 25.19 5.2 41.4 64 -1 30.2
16:05 1024 30.24 853 25.19 5.2 41.3 65 -0.8 30.6
16:10 1024 30.24 853 25.19 5.2 41.4 65 -0.8 30.6
16:15 1024 30.24 853 25.19 5.3 41.6 63 -1.1 29.9
16:20 1024 30.24 853 25.19 5.4 41.7 63 -1.1 30
16:25 1024 30.24 853 25.19 5.4 41.7 63 -1 30.3
16:30 1024 30.24 853 25.19 5.4 41.8 64 -0.9 30.5
16:35 1023 30.21 853 25.19 5.5 41.9 63 -0.9 30.4
16:40 1023 30.21 853 25.19 5.6 42 64 -0.8 30.6
16:45 1023 30.21 853 25.19 5.5 41.9 63 -0.9 30.4
16:50 1023 30.21 853 25.19 5.5 42 64 -0.8 30.6
16:55 1024 30.24 853 25.19 5.6 42.1 62 -1.1 30.1
17:00 1024 30.24 853 25.19 5.5 42 63 -1 30.3
17:05 1024 30.24 853 25.19 5.4 41.7 64 -0.8 30.5
17:10 1024 30.24 853 25.19 5.3 41.6 64 -0.8 30.5
17:15 1024 30.24 853 25.19 5.3 41.6 64 -0.9 30.4
17:20 1024 30.24 853 25.19 5.4 41.7 64 -0.9 30.4
17:25 1024 30.24 853 25.19 5.3 41.6 65 -0.8 30.6
17:30 1024 30.24 853 25.19 5.4 41.7 64 -0.9 30.4
17:35 1024 30.24 853 25.19 5.4 41.7 64 -0.9 30.4
17:40 1024 30.24 853 25.19 5.4 41.7 63 -1 30.1
17:45 1024 30.24 853 25.19 5.3 41.6 64 -0.9 30.4
17:50 1024 30.24 853 25.19 5.3 41.5 64 -1 30.1
17:55 1024 30.24 853 25.19 5.3 41.5 64 -0.9 30.4
18:00 1024 30.24 853 25.19 5.2 41.4 65 -0.9 30.4
18:05 1024 30.24 853 25.19 5.2 41.4 65 -0.9 30.3
18:10 1024 30.24 853 25.19 5.2 41.3 65 -0.9 30.3
18:15 1024 30.24 853 25.19 5.1 41.2 65 -0.8 30.5
18:20 1024 30.24 853 25.19 5.1 41.2 65 -0.9 30.4
18:25 1024 30.24 853 25.19 5 41.1 66 -0.8 30.6
18:30 1024 30.24 853 25.19 4.9 40.9 67 -0.7 30.8
18:35 1024 30.24 853 25.19 4.9 40.7 67 -0.7 30.8
18:40 1024 30.24 853 25.19 4.8 40.6 67 -0.8 30.6
18:45 1024 30.24 853 25.19 4.8 40.6 67 -0.7 30.7
18:50 1024 30.24 853 25.19 4.7 40.5 68 -0.7 30.8
18:55 1024 30.24 853 25.19 4.7 40.4 68 -0.6 30.8
19:00 1023 30.21 853 25.19 4.6 40.3 68 -0.7 30.8
19:05 1023 30.21 853 25.19 4.6 40.3 69 -0.7 30.8
19:10 1023 30.21 853 25.19 4.6 40.2 69 -0.6 30.9
19:15 1024 30.24 853 25.19 4.6 40.2 69 -0.6 30.9
19:20 1024 30.24 853 25.19 4.5 40.2 69 -0.7 30.8
19:25 1024 30.24 853 25.19 4.5 40.2 69 -0.7 30.8
19:30 1024 30.24 853 25.19 4.6 40.2 67 -1.1 30
19:35 1024 30.24 853 25.19 4.6 40.3 66 -1.3 29.7
19:40 1024 30.24 853 25.19 4.7 40.5 65 -1.3 29.7
19:45 1024 30.24 853 25.19 4.7 40.4 65 -1.3 29.7
19:50 1024 30.24 853 25.19 4.7 40.4 65 -1.3 29.6
19:55 1024 30.24 853 25.19 4.7 40.4 64 -1.5 29.4
20:00 1024 30.24 853 25.19 4.7 40.5 65 -1.2 29.8
20:05 1024 30.24 853 25.19 4.7 40.4 66 -1.2 29.9
20:10 1024 30.24 853 25.19 4.6 40.3 65 -1.3 29.7
20:15 1024 30.24 853 25.19 4.6 40.3 65 -1.3 29.7
20:20 1024 30.24 853 25.19 4.6 40.2 65 -1.4 29.6
20:25 1024 30.24 853 25.19 4.5 40.1 65 -1.4 29.4
20:30 1024 30.24 853 25.19 4.5 40 66 -1.3 29.6
20:35 1024 30.24 853 25.19 4.4 39.9 66 -1.3 29.6
20:40 1024 30.24 853 25.19 4.4 39.9 67 -1.3 29.7
20:45 1024 30.24 853 25.19 4.4 39.9 66 -1.3 29.6
20:50 1024 30.24 853 25.19 4.4 39.8 67 -1.2 29.8
20:55 1024 30.24 853 25.19 4.3 39.7 68 -1.1 30.1
21:00 1024 30.24 853 25.19 4.2 39.5 69 -0.9 30.3
21:05 1024 30.24 853 25.19 4.1 39.4 69 -1 30.2
21:10 1024 30.24 853 25.19 4.1 39.3 70 -1 30.3
21:15 1024 30.24 853 25.19 4.1 39.4 69 -1.1 30.1
21:20 1024 30.24 853 25.19 4.2 39.5 69 -1 30.2
21:25 1024 30.24 853 25.19 4.2 39.5 69 -1 30.1
21:30 1024 30.24 853 25.19 4.2 39.5 69 -1 30.2
21:35 1024 30.24 853 25.19 4.2 39.5 69 -1 30.2
21:40 1024 30.24 853 25.19 4.1 39.5 69 -1 30.2
21:45 1024 30.24 853 25.19 4.1 39.4 69 -1 30.2
21:50 1024 30.24 853 25.19 4.1 39.4 70 -0.9 30.3
21:55 1024 30.24 853 25.19 4 39.2 72 -0.6 30.9
22:00 1024 30.24 853 25.19 3.8 38.8 73 -0.5 31.1
22:05 1024 30.24 853 25.19 3.7 38.7 74 -0.5 31.1
22:10 1024 30.24 853 25.19 3.7 38.6 74 -0.6 30.9
22:15 1024 30.24 853 25.19 3.7 38.6 73 -0.6 30.9
22:20 1024 30.24 853 25.19 3.7 38.6 73 -0.7 30.7
22:25 1024 30.24 853 25.19 3.7 38.7 73 -0.8 30.6
22:30 1024 30.24 853 25.19 3.7 38.7 72 -0.9 30.3
22:35 1024 30.24 853 25.19 3.8 38.8 71 -0.9 30.4
22:40 1024 30.24 853 25.19 3.7 38.7 72 -0.9 30.4
22:45 1024 30.24 853 25.19 3.8 38.8 72 -0.8 30.5
22:50 1024 30.24 853 25.19 3.8 38.8 72 -0.8 30.6
22:55 1024 30.24 853 25.19 3.7 38.7 73 -0.6 30.8
23:00 1024 30.24 853 25.19 3.7 38.6 74 -0.6 30.9
23:05 1024 30.24 853 25.19 3.6 38.5 73 -0.7 30.8
23:10 1024 30.24 853 25.19 3.7 38.6 74 -0.6 30.9
23:15 1024 30.24 853 25.19 3.7 38.6 73 -0.6 30.9
23:20 1024 30.24 853 25.19 3.7 38.7 73 -0.7 30.7
23:25 1024 30.24 853 25.19 3.7 38.7 73 -0.7 30.7
23:30 1024 30.24 853 25.19 3.8 38.8 72 -0.7 30.7
23:35 1024 30.24 853 25.19 3.7 38.7 72 -0.8 30.5
23:40 1024 30.24 853 25.19 3.8 38.8 72 -0.9 30.4
23:45 1024 30.24 853 25.19 3.7 38.7 72 -0.8 30.5
23:50 1024 30.24 853 25.19 3.7 38.7 72 -0.8 30.5
23:55 1024 30.24 853 25.19 3.7 38.7 72 -0.9 30.4
24:00 1024 30.24 853 25.19 3.7 38.7 71 -1 30.2